College Park, MD

7:47 AM EST on December 11, 2019 (GMT -0500)
College Park

Weather History for KCGS - October, 2019

Change the Weather History Date:

Saturday, October 26, 2019

  Actual Average Record
Temperature  
Mean Temperature 57 °F -  
Max Temperature 62 °F 64 °F 78 °F (1964)
Min Temperature 52 °F 45 °F 27 °F (1960)
Degree Days  
Heating Degree Days 8    
Growing Degree Days 7 (Base 50)    
Moisture  
Dew Point 48 °F    
Average Humidity 71    
Maximum Humidity 94    
Minimum Humidity 50    
Precipitation  
Precipitation 0.00 in - - ()
Sea Level Pressure  
Sea Level Pressure 30.18 in    
Wind  
Wind Speed 1 mph (ENE)    
Max Wind Speed 7 mph    
Max Gust Speed -    
Visibility 10 miles    
Events      
Averages and records for this station are not official NWS values.
T = Trace of Precipitation, MM = Missing Value Source: NWS Daily Summary

Daily Weather History Graph

Daily Weather History Graph

Search for Another Location

Airport or City:

Astronomy

Oct. 26, 2019 Rise Set
Actual Time 7:28 AM EDT 6:14 PM EDT
Civil Twilight 7:00 AM EDT 6:41 PM EDT
Nautical Twilight 6:29 AM EDT 7:12 PM EDT
Astronomical Twilight 5:58 AM EDT 7:43 PM EDT
Moon 5:22 AM EDT (10/26) 5:47 PM EDT (10/26)
Length of Visible Light 11h 40m
Length of Day
10h 46m
Waning Crescent, 3% of the Moon is Illuminated
Oct 26
Waning Crescent
Oct 27
New
Nov 4
First Quarter
Nov 12
Full
Nov 19
Last Quarter

Hourly Weather History & Observations

Time (EDT) Temp. Dew Point Humidity Pressure Visibility Wind Dir Wind Speed Gust Speed Precip Events Conditions
12:03 AM 55.0 °F 49.5 °F 81% 30.20 in 10.0 mi Calm Calm - N/A   Clear
12:23 AM 55.4 °F 49.3 °F 80% 30.20 in 10.0 mi Calm Calm - N/A   Scattered Clouds
12:43 AM 54.9 °F 49.3 °F 81% 30.20 in 10.0 mi Calm Calm - N/A   Scattered Clouds
1:03 AM 54.5 °F 49.1 °F 82% 30.20 in 10.0 mi Calm Calm - N/A   Clear
1:23 AM 54.3 °F 49.1 °F 83% 30.19 in 10.0 mi Calm Calm - N/A   Clear
1:43 AM 53.8 °F 49.5 °F 85% 30.19 in 10.0 mi Calm Calm - N/A   Clear
2:03 AM 53.2 °F 49.8 °F 88% 30.18 in 10.0 mi Calm Calm - N/A   Mostly Cloudy
2:23 AM 53.6 °F 50.5 °F 89% 30.18 in 10.0 mi Calm Calm - N/A   Overcast
3:23 AM 54.5 °F 52.7 °F 94% 30.17 in 10.0 mi Calm Calm - N/A   Overcast
3:43 AM 54.5 °F 52.5 °F 93% 30.17 in 10.0 mi Calm Calm - N/A   Overcast
4:03 AM 54.9 °F 53.1 °F 94% 30.17 in 10.0 mi Calm Calm - N/A   Mostly Cloudy
4:23 AM 55.4 °F 51.3 °F 86% 30.17 in 10.0 mi Calm Calm - N/A   Mostly Cloudy
4:43 AM 54.7 °F 50.0 °F 84% 30.17 in 10.0 mi Calm Calm - N/A   Overcast
5:03 AM 55.0 °F 50.4 °F 84% 30.18 in 10.0 mi Calm Calm - N/A   Mostly Cloudy
5:23 AM 54.5 °F 50.5 °F 86% 30.18 in 10.0 mi Calm Calm - N/A   Overcast
5:43 AM 54.1 °F 51.3 °F 90% 30.18 in 10.0 mi Calm Calm - N/A   Overcast
6:03 AM 54.1 °F 51.8 °F 92% 30.18 in 10.0 mi Calm Calm - N/A   Overcast
6:23 AM 54.0 °F 51.8 °F 92% 30.18 in 10.0 mi Calm Calm - N/A   Mostly Cloudy
6:43 AM 52.9 °F 51.1 °F 94% 30.18 in 10.0 mi Calm Calm - N/A   Mostly Cloudy
7:03 AM 53.4 °F 51.6 °F 94% 30.19 in 10.0 mi Calm Calm - N/A   Mostly Cloudy
7:23 AM 53.2 °F 51.4 °F 94% 30.20 in 10.0 mi Calm Calm - N/A   Overcast
7:43 AM 53.6 °F 51.8 °F 94% 30.20 in 10.0 mi Calm Calm - N/A   Overcast
8:23 AM 54.5 °F 52.7 °F 94% 30.21 in 10.0 mi Calm Calm - N/A   Scattered Clouds
8:43 AM 55.0 °F 53.2 °F 94% 30.22 in 10.0 mi Calm Calm - N/A   Clear
9:23 AM 56.8 °F 48.0 °F 72% 30.23 in 10.0 mi Calm Calm - N/A   Clear
9:43 AM 57.7 °F 47.8 °F 70% 30.22 in 10.0 mi Calm Calm - N/A   Clear
10:03 AM 59.0 °F 47.3 °F 65% 30.22 in 10.0 mi Calm Calm - N/A   Scattered Clouds
10:23 AM 60.4 °F 45.9 °F 59% 30.23 in 10.0 mi ENE 4.6 mph - N/A   Mostly Cloudy
10:43 AM 61.0 °F 45.3 °F 56% 30.23 in 10.0 mi East 3.5 mph - N/A   Mostly Cloudy
11:03 AM 61.7 °F 44.8 °F 54% 30.23 in 10.0 mi NE 5.8 mph - N/A   Overcast
11:23 AM 61.9 °F 44.8 °F 53% 30.23 in 10.0 mi ENE 4.6 mph - N/A   Mostly Cloudy
11:43 AM 61.9 °F 44.2 °F 52% 30.22 in 10.0 mi East 3.5 mph - N/A   Scattered Clouds
12:03 PM 62.1 °F 44.6 °F 53% 30.23 in 10.0 mi NE 6.9 mph - N/A   Scattered Clouds
12:23 PM 61.7 °F 43.2 °F 51% 30.23 in 10.0 mi East 6.9 mph - N/A   Mostly Cloudy
12:43 PM 62.1 °F 44.4 °F 52% 30.22 in 7.0 mi East 4.6 mph - N/A   Mostly Cloudy
1:03 PM 62.2 °F 44.4 °F 52% 30.20 in 10.0 mi East 5.8 mph - N/A   Mostly Cloudy
1:23 PM 62.1 °F 43.3 °F 50% 30.20 in 10.0 mi East 5.8 mph - N/A   Scattered Clouds
1:43 PM 62.2 °F 43.9 °F 51% 30.19 in 10.0 mi Calm Calm - N/A   Clear
2:03 PM 62.2 °F 43.3 °F 50% 30.19 in 10.0 mi Calm Calm - N/A   Clear
2:23 PM 62.6 °F 43.7 °F 50% 30.18 in 10.0 mi NE 4.6 mph - N/A   Scattered Clouds
3:23 PM 62.6 °F 44.1 °F 51% 30.17 in 10.0 mi Calm Calm - N/A   Scattered Clouds
3:43 PM 62.6 °F 44.8 °F 52% 30.17 in 10.0 mi East 4.6 mph - N/A   Mostly Cloudy
4:03 PM 62.6 °F 45.5 °F 54% 30.17 in 10.0 mi East 5.8 mph - N/A   Mostly Cloudy
4:23 PM 62.6 °F 46.0 °F 55% 30.17 in 10.0 mi Calm Calm - N/A   Mostly Cloudy
4:43 PM 62.2 °F 46.6 °F 57% 30.16 in 10.0 mi ENE 3.5 mph - N/A   Overcast
5:03 PM 62.1 °F 46.9 °F 58% 30.16 in 10.0 mi ENE 3.5 mph - N/A   Overcast
5:23 PM 61.9 °F 47.3 °F 59% 30.16 in 10.0 mi ENE 3.5 mph - N/A   Overcast
5:43 PM 61.7 °F 47.1 °F 59% 30.15 in 10.0 mi ENE 4.6 mph - N/A   Overcast
6:03 PM 61.0 °F 47.1 °F 60% 30.15 in 10.0 mi Calm Calm - N/A   Mostly Cloudy
6:23 PM 60.8 °F 47.3 °F 61% 30.15 in 10.0 mi Calm Calm - N/A   Scattered Clouds
6:43 PM 60.3 °F 47.5 °F 63% 30.15 in 10.0 mi Calm Calm - N/A   Mostly Cloudy
7:03 PM 60.3 °F 47.8 °F 64% 30.15 in 10.0 mi Calm Calm - N/A   Overcast
7:23 PM 60.1 °F 47.8 °F 64% 30.15 in 10.0 mi Calm Calm - N/A   Mostly Cloudy
7:43 PM 59.9 °F 48.2 °F 65% 30.16 in 10.0 mi Calm Calm - N/A   Scattered Clouds
8:03 PM 59.7 °F 48.4 °F 66% 30.15 in 10.0 mi Calm Calm - N/A   Clear
8:23 PM 59.7 °F 48.7 °F 67% 30.15 in 10.0 mi Calm Calm - N/A   Clear
8:43 PM 60.1 °F 49.1 °F 67% 30.15 in 10.0 mi East 3.5 mph - N/A   Mostly Cloudy
9:03 PM 60.1 °F 49.3 °F 67% 30.14 in 10.0 mi ESE 3.5 mph - N/A   Mostly Cloudy
9:23 PM 60.1 °F 49.3 °F 67% 30.15 in 10.0 mi East 3.5 mph - N/A   Mostly Cloudy
9:43 PM 60.1 °F 49.5 °F 68% 30.15 in 10.0 mi ESE 3.5 mph - N/A   Overcast
10:03 PM 59.9 °F 49.6 °F 69% 30.15 in 10.0 mi East 5.8 mph - N/A   Overcast
10:23 PM 59.4 °F 50.2 °F 72% 30.15 in 10.0 mi Calm Calm - N/A   Overcast
10:43 PM 59.0 °F 50.4 °F 73% 30.14 in 10.0 mi East 3.5 mph - N/A   Overcast
11:03 PM 59.0 °F 50.4 °F 73% 30.13 in 10.0 mi East 5.8 mph - N/A   Scattered Clouds
11:23 PM 58.3 °F 50.7 °F 76% 30.12 in 10.0 mi Calm Calm - N/A   Mostly Cloudy
11:43 PM 58.1 °F 50.9 °F 77% 30.12 in 10.0 mi Calm Calm - N/A   Overcast